Meteo Giornale » Osservazioni meteo Italia » Pisa-S Giusto

ore: 00:45 - Osservazioni Meteo Pisa-S Giusto
Lat. 43° 41' N Lon. 10° 23' E Alt. 2 metri s.l.m.

molto_nuvoloso Europe/Rome

11 °C

Molto Nuvoloso

Temp. 24 Ore

1 °C

14 °C

Ovest/Nord-Ovest

7.4 Km/h

Dew point 8 °C

Umidità 81 %

Visibilità  10 Km

Il sole sorge alle ore 07:04

Il sole tramonta alle ore 17:59

Data e Ora Cielo e Fenomeni T °C DP °C Um. % Pres. hPa Vis. km Vento km/h
Oggi h: 00:45 molto_nuvoloso Molto Nuvoloso 11 8 81 1027 10 O/NO 7.4
Oggi h: 00:15 molto_nuvoloso Molto Nuvoloso 11 8 81 1027 10 O/NO 7.4
Ieri h: 23:45 molto_nuvoloso Molto Nuvoloso 11 8 81 1027 10 O/NO 9.3
Ieri h: 23:15 molto_nuvoloso Molto Nuvoloso 11 8 81 1028 10 O/NO 9.3
Ieri h: 22:45 molto_nuvoloso Molto Nuvoloso 11 8 81 1028 10 O/NO 7.4
Ieri h: 22:15 molto_nuvoloso Molto Nuvoloso 11 8 81 1028 10 NO 9.3
Ieri h: 21:45 molto_nuvoloso Molto Nuvoloso 11 8 81 1028 10 O/NO 11.1
Ieri h: 21:15 molto_nuvoloso Molto Nuvoloso 11 8 81 1027 10 O 7.4
Ieri h: 20:45 molto_nuvoloso Molto Nuvoloso 11 8 81 1027 10 O 7.4
Ieri h: 20:15 molto_nuvoloso Molto Nuvoloso 11 8 81 1027 10 O/NO 11.1
Ieri h: 19:45 molto_nuvoloso Molto Nuvoloso 11 8 81 1027 10 O 9.3
Ieri h: 19:15 molto_nuvoloso Molto Nuvoloso 11 8 81 1027 10 O 13
Ieri h: 18:45 molto_nuvoloso Molto Nuvoloso 11 8 81 1027 10 O 11.1
Ieri h: 18:15 molto_nuvoloso Molto Nuvoloso 11 8 81 1027 10 O 13
Ieri h: 17:45 molto_nuvoloso Molto Nuvoloso 11 8 81 1027 10 O/NO 13
Ieri h: 17:15 molto_nuvoloso Molto Nuvoloso 12 8 76 1027 10 O 16.7
Ieri h: 16:45 molto_nuvoloso Molto Nuvoloso 12 8 76 1027 10 O 14.8
Ieri h: 16:15 nuvoloso Nuvoloso 12 8 76 1027 10 O 14.8
Ieri h: 15:45 nuvoloso Nuvoloso 12 8 76 1027 10 O 16.7
Ieri h: 15:15 nuvoloso Nuvoloso 13 7 66 1028 10 O 16.7
Ieri h: 14:45 nuvoloso Nuvoloso 13 7 66 1028 10 O 16.7
Ieri h: 14:15 nuvoloso Nuvoloso 14 8 67 1028 10 O 18.5
Ieri h: 13:45 molto_nuvoloso Molto Nuvoloso 13 7 66 1028 10 O 13
Ieri h: 13:15 molto_nuvoloso Molto Nuvoloso 13 7 66 1028 10 O 11.1
Ieri h: 12:45 molto_nuvoloso Molto Nuvoloso 13 8 71 1028 10 NO 13
Ieri h: 12:15 nuvoloso Nuvoloso 12 8 76 1029 8 N 3.7
Ieri h: 11:45 nuvoloso Nuvoloso 11 8 81 1029 8 N 3.7
Ieri h: 11:15 nuvoloso Nuvoloso 9 8 93 1029 8 N 5.5
Ieri h: 10:45 molto_nuvoloso Molto Nuvoloso 7 7 100 1028 8 N 5.5
Ieri h: 10:15 molto_nuvoloso Molto Nuvoloso 6 6 100 1028 7 N 5.5
Ieri h: 09:45 molto_nuvoloso Molto Nuvoloso 5 5 100 1028 7 SE 7.4
Ieri h: 09:15 molto_nuvoloso Molto Nuvoloso 4 4 100 1028 7 E/SE 7.4
Ieri h: 08:45 molto_nuvoloso Molto Nuvoloso 3 3 100 1028 7 N 5.5
Ieri h: 08:15 molto_nuvoloso Molto Nuvoloso 2 2 100 1028 7 E/SE 9.3
Ieri h: 07:45 foschia Foschia 1 1 100 1027 5 N 5.5
Ieri h: 07:15 foschia Foschia 1 1 100 1027 5 N 5.5
Ieri h: 06:45 foschia Foschia 2 2 100 1027 4 N 5.5
Ieri h: 06:15 foschia Foschia 2 2 100 1027 4 N 5.5
Ieri h: 05:45 foschia Foschia 2 2 100 1027 4 N 5.5
Ieri h: 05:15 foschia Foschia 2 2 100 1027 1 N 5.5
Ieri h: 04:45 foschia Foschia 2 2 100 1027 1 N 3.7
Ieri h: 04:15 foschia Foschia 3 3 100 1027 4 E/SE 7.4
Ieri h: 03:45 foschia Foschia 2 2 100 1027 5 E 7.4
Ieri h: 03:15 foschia Foschia 2 2 100 1027 5 N 5.5
Ieri h: 02:45 foschia Foschia 2 2 100 1027 4 SE 7.4
Ieri h: 02:15 foschia Foschia 2 2 100 1027 2 N 5.5
Ieri h: 01:45 nebbia Nebbia 2 2 100 1026 0.35 N 3.7
Ieri h: 01:15 nebbia Nebbia 3 3 100 1026 0.35 N 5.5
Ieri h: 00:45 nebbia Nebbia 3 3 100 1026 0.55 N 1.8